Date String (YYYY-MM-DD hh:mm:ss) UTC,Instrument flags,Ambient pressure (hPa),Sample flow (lpm),Bypass flow (lpm),Sample temperature (°C),Ambient temperature (°C),ASC tube jacket temperature (°C),LED temperature (°C),Box temperature (°C),Sample RH (%),Span deviation,Mass concentration (μg/m³),Mass concentration (μg/m³),Mass concentration (μg/m³)
DateTimeUTC,F1_M11,P_M11,Q1_M11,Q2_M11,T1_M11,T2_M11,T3_M11,T4_M11,T5_M11,U1_M11,ZSPAN_M11,X2_M11,X0_M11,X1_M11
2022-03-16 04:00:00,,0823.4,4.99,0.00,28.7,27.9,00.0,37.7,30.4,06.2,0000.0,0001.11,0002.48,0000.56
2022-03-16 04:01:00,,0823.3,4.99,0.00,28.7,27.9,00.0,37.7,30.4,06.2,0000.0,0001.11,0002.50,0000.56
2022-03-16 04:02:00,,0823.3,5.00,0.00,28.7,27.9,00.0,37.7,30.4,06.3,0000.0,0001.13,0002.55,0000.57
2022-03-16 04:03:00,,0823.3,5.00,0.00,28.7,27.9,00.0,37.7,30.4,06.3,0000.0,0001.09,0002.45,0000.57
2022-03-16 04:04:00,,0823.3,5.01,0.00,28.7,27.9,00.0,37.7,30.4,06.3,0000.0,0001.06,0002.26,0000.57
2022-03-16 04:05:00,,0823.3,4.99,0.00,28.7,27.9,00.0,37.7,30.4,06.4,0000.0,0001.09,0002.21,0000.57
2022-03-16 04:06:00,,0823.4,4.99,0.00,28.7,27.9,00.0,37.7,30.4,06.3,0000.0,0001.06,0002.05,0000.57
2022-03-16 04:07:00,,0823.4,4.99,0.00,28.7,27.9,00.0,37.7,30.4,06.3,0000.0,0001.03,0002.01,0000.56
2022-03-16 04:08:00,,0823.4,5.01,0.00,28.7,27.9,00.0,37.7,30.4,06.2,0000.0,0001.00,0001.94,0000.56
2022-03-16 04:09:00,,0823.4,4.99,0.00,28.7,27.9,00.0,37.7,30.4,06.4,0000.0,0001.03,0002.02,0000.56
2022-03-16 04:10:00,,0823.4,5.00,0.00,28.7,27.9,00.0,37.7,30.4,06.4,0000.0,0001.03,0002.06,0000.56
2022-03-16 04:11:00,,0823.3,5.01,0.00,28.7,27.9,00.0,37.7,30.4,06.3,0000.0,0000.98,0001.98,0000.55
2022-03-16 04:12:00,,0823.3,4.99,0.00,28.7,27.9,00.0,37.7,30.4,06.3,0000.0,0000.95,0001.91,0000.54
2022-03-16 04:13:00,,0823.3,5.02,0.00,28.7,27.9,00.0,37.7,30.4,06.3,0000.0,0000.94,0001.91,0000.54
2022-03-16 04:14:00,,0823.3,4.98,0.00,28.7,27.9,00.0,37.7,30.4,06.3,0000.0,0000.93,0001.86,0000.53
2022-03-16 04:15:00,,0823.4,4.98,0.00,28.7,27.9,00.0,37.7,30.4,06.4,0000.0,0000.93,0001.83,0000.54
2022-03-16 04:16:00,,0823.4,5.02,0.00,28.7,27.9,00.0,37.7,30.4,06.3,0000.0,0000.89,0002.07,0000.53
2022-03-16 04:17:00,,0823.4,4.99,0.00,28.7,27.9,00.0,37.7,30.4,06.4,0000.0,0000.86,0001.94,0000.53
2022-03-16 04:18:00,,0823.4,5.02,0.00,28.7,27.9,00.0,37.7,30.4,06.4,0000.0,0000.87,0001.97,0000.54
2022-03-16 04:19:00,,0823.4,4.99,0.00,28.7,27.9,00.0,37.7,30.4,06.5,0000.0,0000.89,0002.03,0000.53
2022-03-16 04:20:00,,0823.5,4.99,0.00,28.7,27.9,00.0,37.7,30.4,06.6,0000.0,0000.82,0001.88,0000.51
2022-03-16 04:21:00,,0823.5,5.01,0.00,28.7,27.9,00.0,37.7,30.5,06.5,0000.0,0000.80,0001.78,0000.51
2022-03-16 04:22:00,,0823.5,4.98,0.00,28.7,27.9,00.0,37.7,30.4,06.5,0000.0,0000.82,0002.00,0000.51
2022-03-16 04:23:00,,0823.6,4.99,0.00,28.7,27.8,00.0,37.7,30.4,06.5,0000.0,0000.84,0002.10,0000.51
2022-03-16 04:24:00,,0823.6,5.01,0.00,28.7,27.8,00.0,37.7,30.4,06.5,0000.0,0000.90,0002.24,0000.51
2022-03-16 04:25:00,,0823.5,5.01,0.00,28.7,27.8,00.0,37.7,30.4,06.6,0000.0,0000.90,0002.25,0000.50
2022-03-16 04:26:00,,0823.4,4.99,0.00,28.7,27.8,00.0,37.7,30.4,06.6,0000.0,0000.95,0002.40,0000.51
2022-03-16 04:27:00,,0823.6,5.00,0.00,28.7,27.8,00.0,37.7,30.3,06.5,0000.0,0000.96,0002.08,0000.51
2022-03-16 04:28:00,,0823.6,4.99,0.00,28.7,27.8,00.0,37.7,30.4,06.5,0000.0,0000.96,0002.10,0000.51
2022-03-16 04:29:00,,0823.6,5.00,0.00,28.7,27.8,00.0,37.7,30.4,06.6,0000.0,0000.94,0002.05,0000.50
2022-03-16 04:30:00,,0823.7,5.01,0.00,28.7,27.8,00.0,37.7,30.4,06.7,0000.0,0000.93,0002.00,0000.51
2022-03-16 04:31:00,,0823.6,4.99,0.00,28.7,27.8,00.0,37.7,30.4,06.8,0000.0,0000.92,0001.98,0000.51
2022-03-16 04:32:00,,0823.6,4.98,0.00,28.7,27.8,00.0,37.7,30.4,06.8,0000.0,0000.93,0002.01,0000.52
2022-03-16 04:33:00,,0823.6,5.01,0.00,28.7,27.8,00.0,37.7,30.3,06.8,0000.0,0000.93,0001.85,0000.51
2022-03-16 04:34:00,,0823.6,4.99,0.00,28.7,27.8,00.0,37.7,30.3,06.8,0000.0,0000.90,0001.72,0000.51
2022-03-16 04:35:00,,0823.6,4.99,0.00,28.7,27.8,00.0,37.7,30.3,06.9,0000.0,0000.84,0001.57,0000.51
2022-03-16 04:36:00,,0823.5,5.01,0.00,28.7,27.8,00.0,37.7,30.3,06.9,0000.0,0000.83,0001.57,0000.51
2022-03-16 04:37:00,,0823.5,5.01,0.00,28.7,27.8,00.0,37.7,30.3,06.8,0000.0,0000.79,0001.42,0000.50
2022-03-16 04:38:00,,0823.4,4.99,0.00,28.6,27.8,00.0,37.7,30.3,06.8,0000.0,0000.77,0001.35,0000.50
2022-03-16 04:39:00,,0823.5,5.02,0.00,28.7,27.7,00.0,37.7,30.3,06.6,0000.0,0000.78,0001.38,0000.50
2022-03-16 04:40:00,,0823.5,4.99,0.00,28.6,27.7,00.0,37.7,30.3,06.7,0000.0,0000.76,0001.32,0000.50
2022-03-16 04:41:00,,0823.5,5.00,0.00,28.6,27.7,00.0,37.7,30.3,06.8,0000.0,0000.73,0001.24,0000.49
2022-03-16 04:42:00,,0823.6,5.00,0.00,28.6,27.7,00.0,37.7,30.3,06.9,0000.0,0000.76,0001.29,0000.49
2022-03-16 04:43:00,,0823.4,4.99,0.00,28.6,27.7,00.0,37.7,30.3,06.9,0000.0,0000.74,0001.25,0000.48
2022-03-16 04:44:00,,0823.4,5.02,0.00,28.6,27.7,00.0,37.6,30.3,07.0,0000.0,0000.73,0001.24,0000.49
2022-03-16 04:45:00,,0823.4,4.99,0.00,28.6,27.7,00.0,37.6,30.3,06.8,0000.0,0000.75,0001.32,0000.49
2022-03-16 04:46:00,,0823.3,5.00,0.00,28.6,27.7,00.0,37.6,30.3,06.9,0000.0,0000.78,0001.73,0000.49
2022-03-16 04:47:00,,0823.4,5.00,0.00,28.6,27.7,00.0,37.6,30.3,06.8,0000.0,0000.77,0002.02,0000.48
2022-03-16 04:48:00,,0823.3,5.01,0.00,28.6,27.7,00.0,37.6,30.3,06.9,0000.0,0000.76,0001.97,0000.48
2022-03-16 04:49:00,,0823.3,5.00,0.00,28.6,27.7,00.0,37.6,30.3,06.9,0000.0,0000.78,0001.99,0000.49
2022-03-16 04:50:00,,0823.4,4.99,0.00,28.6,27.7,00.0,37.6,30.3,06.9,0000.0,0000.77,0001.97,0000.49
2022-03-16 04:51:00,,0823.3,5.00,0.00,28.6,27.7,00.0,37.6,30.3,06.9,0000.0,0000.78,0002.00,0000.49
2022-03-16 04:52:00,,0823.3,5.01,0.00,28.6,27.7,00.0,37.6,30.3,06.8,0000.0,0000.79,0002.02,0000.50
2022-03-16 04:53:00,,0823.3,4.99,0.00,28.6,27.7,00.0,37.6,30.3,07.0,0000.0,0000.78,0001.99,0000.51
2022-03-16 04:54:00,,0823.3,4.99,0.00,28.6,27.7,00.0,37.6,30.3,07.0,0000.0,0000.82,0002.09,0000.51
2022-03-16 04:55:00,,0823.3,5.01,0.00,28.6,27.7,00.0,37.6,30.3,07.1,0000.0,0000.87,0002.22,0000.52
2022-03-16 04:56:00,,0823.3,4.99,0.00,28.6,27.7,00.0,37.6,30.3,07.0,0000.0,0000.89,0002.27,0000.53
2022-03-16 04:57:00,,0823.3,5.00,0.00,28.6,27.7,00.0,37.6,30.3,07.0,0000.0,0000.93,0002.07,0000.53
2022-03-16 04:58:00,,0823.3,5.00,0.00,28.6,27.7,00.0,37.6,30.3,07.0,0000.0,0000.93,0001.67,0000.53
2022-03-16 04:59:00,,0823.4,4.99,0.00,28.6,27.7,00.0,37.6,30.3,07.0,0000.0,0000.92,0001.63,0000.53
